weather.gov     
National Weather Service

Regional Weather Roundup
NWS Homepage
This page is being discontinued on March 12, 2014.
The same data is available at this site. Please update your bookmarks.
Thank you, and we apologize for the inconvenience.
Please send an email to SR-SRH.Webmaster@noaa.gov with any concerns.


Current Version
Previous Version:    01  02  03  04  05  06  07  08  09  10  11  12  13  14  15  16  17  18  19  20  21  22  23  24  25  26  
[Printable]
361
ASUS42 KKEY 230810
RWRKEY

FLORIDA REGIONAL WEATHER ROUNDUP FOR THE FLORIDA KEYS
NATIONAL WEATHER SERVICE KEY WEST FLORIDA
400 AM EDT THU OCT 23 2014

...SOUTH FLORIDA AND THE KEYS...

CITY           SKY/WX    TMP DP  RH WIND       PRES   REMARKS
FORT MYERS     CLOUDY    71  65  81 NE9       29.90F
SW REGIONAL AP CLOUDY    70  65  84 E9        29.90F
NAPLES         CLOUDY    74  71  91 E8        29.88F
MIAMI          LGT RAIN  75  73  93 E3        29.89F
WEST KENDALL   LGT RAIN  75  73  93 CALM      29.89F
HOMESTEAD      CLOUDY    74  73  97 CALM      29.89F
MARATHON       LGT RAIN  74  32  21 E8        29.87F
BOCA CHICA NAS CLOUDY   N/A N/A N/A E17       29.85F
KEY WEST INTL  LGT RAIN  76  75  97 E13       29.85F

...INTERNATIONAL WEATHER...

CITY           SKY/WX    TMP DP  RH WIND       PRES   REMARKS
NASSAU BAHAMAS CLOUDY    75  72  88 CALM      29.89F
CANCUN MEXICO  MOCLDY    75  75 100 N3        29.77F
COZUMEL MEXICO CLOUDY    72  72 100 CALM      29.77S

ADJACENT COASTAL WATERS...

STATION/POSITION TIME  SKY/WX   TEMP    WIND        PRES    WAVE
                                AIR SEA DIR/SP/G            HT/PER
                 (UTC)          (F)     (DEG/KT/KT) (MB)    (FT/S)
PULASKI SHOAL LI 0700            79     100/ 22/ 25 1010.1F
SAND KEY         0800            77      30/  5/ 18 1010.6F
SOMBRERO KEY     0800            76     100/ 18/ 19 1011.7F
LONG KEY         0700            77 79  130/ 12/ 13 1012.7F
MOLASSES REEF    0800            78 83   80/ 12/ 15 1011.8F
FOWEY ROCKS      0800            78 80  110/  6/  7 1012.2F
Buoy 42080       NOT AVBL

$$




U.S. Dept. of Commerce
NOAA National Weather Service
1325 East West Highway
Silver Spring, MD 20910
E-mail: w-nws.webmaster@noaa.gov
Page last modified: May 16, 2007
NATIONAL WEATHER SERVICE: for Safety, for Work, for Fun - FOR LIFE